Home > Weather > Oftringen > Past weeks

Flag for Switzerland Weather for the Past 2 Weeks in Oftringen, Aargau, Switzerland

Now
45 °F

Cool.


Feels Like: 45 °F
Forecast: 37 / 57 °F
Wind: 1 mph from Southwest

Location: Wynau

Current Time: May 3, 2016 at 9:20:35 AM

Latest Report: May 3, 2016 at 8:00 AM


Visibility: N/A

Pressure: 30.19 "Hg

Humidity: 96%

Dew Point: 44 °F

Location of OftringenLocation

Historic Weather in Oftringen — Graph

°F

Oftringen Temperature Yesterday

Maximum temperature yesterday: 61 °F (at 5:00 PM)
Minimum temperature yesterday: 42 °F (at 6:00 AM)
Average temperature yesterday: 50 °F

High & Low Weather Summary for the Past Weeks

 TemperatureHumidityPressure
High71 °F (Apr 21, 5:00 PM)100% (Apr 23, 4:00 PM)30.35 "Hg (Apr 23, 4:00 PM)
Low28 °F (Apr 28, 7:00 AM)30% (Apr 29, 6:00 PM)29.67 "Hg (Apr 26, 7:00 PM)
Average48 °F71%30.05 "Hg
* Reported Apr 18 1:00 PM — May 3 6:00 AM, Oftringen, Weather by CustomWeather, © 2016

Note: Actual official high and low records may vary slightly from our data, if they occured in-between our weather recording intervals... More about our weather records

Advertising

Oftringen Weather History for the Previous 24 Hours

Scroll right to see more
 ConditionsComfort  
Time TempWeatherWind HumidityBarometerVisibility
6:00 AM
Tue, May 3
44 °FQuite cool.1 mph99%30.17 "HgN/A
5:00 AM46 °FCool.1 mph97%30.17 "HgN/A
3:00 AM47 °FCool.1 mph92%30.16 "HgN/A
2:00 AM46 °FCool.1 mph94%30.17 "HgN/A
1:00 AM47 °FCool.1 mph95%30.18 "HgN/A
12:00 AM48 °FCool.No wind95%30.17 "HgN/A
11:00 PM
Mon, May 2
50 °FCool.1 mph93%30.16 "HgN/A
10:00 PM50 °FCool.No wind91%30.16 "HgN/A
9:00 PM51 °FCool.1 mph90%30.14 "HgN/A
8:00 PM52 °FCool.2 mph90%30.13 "HgN/A
7:00 PM58 °FCool.2 mph66%30.11 "HgN/A
6:00 PM58 °FCool.6 mph61%30.11 "HgN/A
5:00 PM61 °FRefreshingly cool.8 mph56%30.11 "HgN/A
4:00 PM60 °FRefreshingly cool.7 mph58%30.13 "HgN/A
3:00 PM57 °FCool.8 mph65%30.16 "HgN/A
2:00 PM54 °FCool.5 mph76%30.18 "HgN/A
1:00 PM52 °FCool.5 mph78%30.19 "HgN/A
12:00 PM52 °FCool.6 mph83%30.20 "HgN/A
11:00 AM49 °FCool.2 mph87%30.22 "HgN/A
10:00 AM47 °FCool.2 mph92%30.22 "HgN/A
9:00 AM45 °FCool.3 mph94%30.23 "HgN/A
Weather by CustomWeather, © 2016

See weather overviewHow to use our weather pages